Weather History for Cheyenne, WY

Change the Weather History Date:

Tuesday, February 5, 2013

  Actual Average Record
Temperature  
Mean Temperature 36 °F 28 °F  
Max Temperature 48 °F 39 °F 62 °F (1963)
Min Temperature 23 °F 18 °F -25 °F (1982)
Degree Days  
Heating Degree Days 29 37  
Month to date heating degree days 151 185  
Since 1 July heating degree days 4002 4212  
Cooling Degree Days 0 0  
Month to date cooling degree days 0 0  
Year to date cooling degree days 0 0  
Moisture  
Dew Point 15 °F    
Average Humidity 42    
Maximum Humidity 60    
Minimum Humidity 23    
Precipitation  
Precipitation 0.00 in 0.01 in 0.20 in (1946)
Month to date precipitation T 0.07  
Year to date precipitation 0.24 0.40  
Snow  
Snow 0.00 in 0.30 in 1.80 in (1946)
Month to date snowfall T 1.3  
Since 1 July snowfall 28.8 29.9  
Snow Depth 0.00 in    
Sea Level Pressure  
Sea Level Pressure 29.92 in    
Wind  
Wind Speed 9 mph (WSW)    
Max Wind Speed 23 mph    
Max Gust Speed 33 mph    
Visibility 10 miles    
Events      
T = Trace of Precipitation, MM = Missing Value Source: NWS Daily Summary

Daily Weather History Graph

Daily Weather History Graph

Search for Another Location

Airport:

Trip Planner

Search our weather history database for the weather conditions in past years. The results will help you decide how hot, cold, wet, or windy it might be!

Date:

Astronomy

Feb. 05, 2013 Rise Set
Actual Time 7:05 AM MST 5:21 PM MST
Civil Twilight 6:36 AM MST 5:50 PM MST
Nautical Twilight 6:04 AM MST 6:23 PM MST
Astronomical Twilight 5:31 AM MST 6:55 PM MST
Moon 2:51 AM MST (2/5) 12:40 PM MST (2/5)
Length of Visible Light 11h 13m
Length of Day
10h 15m
Waning Crescent, 26% of the Moon is Illuminated
Feb 5
Waning Crescent
Feb 10
New
Feb 17
First Quarter
Feb 25
Full
Mar 4
Last Quarter

Hourly Weather History & Observations

Time (MST) Temp. Windchill Dew Point Humidity Pressure Visibility Wind Dir Wind Speed Gust Speed Precip Events Conditions
12:53 AM 35.1 °F 32.2 °F 12.0 °F 39% 29.88 in 10.0 mi Variable 3.5 mph - N/A   Clear
1:53 AM 34.0 °F 25.5 °F 12.9 °F 42% 29.89 in 10.0 mi WNW 11.5 mph - N/A   Clear
2:53 AM 33.1 °F - 12.9 °F 43% 29.91 in 10.0 mi Calm Calm - N/A   Clear
3:53 AM 30.9 °F 27.5 °F 14.0 °F 50% 29.94 in 10.0 mi North 3.5 mph - N/A   Clear
4:53 AM 28.0 °F - 14.0 °F 56% 29.99 in 10.0 mi Calm Calm - N/A   Clear
5:53 AM 24.1 °F 18.2 °F 12.0 °F 60% 30.04 in 10.0 mi NW 4.6 mph - N/A   Clear
6:53 AM 25.0 °F 20.7 °F 12.9 °F 60% 30.04 in 10.0 mi NW 3.5 mph - N/A   Clear
7:53 AM 27.0 °F 21.6 °F 14.0 °F 58% 30.03 in 10.0 mi NNW 4.6 mph - N/A   Clear
8:53 AM 39.9 °F 34.5 °F 17.1 °F 40% 29.99 in 10.0 mi WNW 8.1 mph - N/A   Clear
9:53 AM 41.0 °F 33.5 °F 12.9 °F 32% 30.00 in 10.0 mi SW 13.8 mph - N/A   Scattered Clouds
10:53 AM 48.0 °F - 12.9 °F 24% 29.96 in 10.0 mi SSW 19.6 mph 24.2 mph N/A   Scattered Clouds
11:53 AM 46.0 °F 39.0 °F 12.9 °F 26% 29.94 in 10.0 mi South 17.3 mph - N/A   Clear
12:53 PM 46.0 °F 38.5 °F 12.9 °F 26% 29.90 in 10.0 mi South 19.6 mph 27.6 mph N/A   Clear
1:53 PM 44.1 °F 35.9 °F 14.0 °F 30% 29.89 in 10.0 mi South 19.6 mph 28.8 mph N/A   Partly Cloudy
2:53 PM 44.1 °F 37.1 °F 15.1 °F 31% 29.88 in 10.0 mi SSW 15.0 mph 24.2 mph N/A   Partly Cloudy
3:53 PM 44.1 °F 37.4 °F 16.0 °F 32% 29.88 in 10.0 mi South 13.8 mph - N/A   Clear
4:53 PM 44.1 °F 36.8 °F 15.1 °F 31% 29.90 in 10.0 mi SSW 16.1 mph - N/A   Clear
5:53 PM 41.0 °F 36.4 °F 16.0 °F 36% 29.93 in 10.0 mi SSW 6.9 mph - N/A   Clear
6:53 PM 39.9 °F 35.8 °F 16.0 °F 38% 29.93 in 10.0 mi SSW 5.8 mph - N/A   Clear
7:53 PM 37.9 °F 35.5 °F 16.0 °F 41% 29.93 in 10.0 mi SW 3.5 mph - N/A   Clear
8:53 PM 37.0 °F 32.4 °F 16.0 °F 42% 29.85 in 10.0 mi WNW 5.8 mph - N/A   Overcast
9:53 PM 35.1 °F 27.9 °F 17.1 °F 48% 29.85 in 10.0 mi West 9.2 mph - N/A   Clear
10:53 PM 36.0 °F 33.3 °F 16.0 °F 44% 29.80 in 10.0 mi NW 3.5 mph - N/A   Clear
11:53 PM 33.8 °F 26.4 °F 17.6 °F 52% 29.85 in 10.0 mi West 9.2 mph - N/A   Clear